Location: Anglesea
(53.2500°N, 4.3333°W)
Time: 23:41:07
(UTC+00:00)

Daily predictions for brighter satellites

Satellite Brightness Start Highest point End
(mag) Time Altitude Azimuth Time Altitude Azimuth Time Altitude Azimuth
CZ-4C R/B 3.5 16:41:32 10° NNE 16:45:40 61° ESE 16:49:32 10° S
Tsikada Rocket 4.2 16:39:30 10° NNW 16:45:53 84° W 16:52:18 10° S
Cosmos 1437 Rocket 4.3 16:45:41 10° SW 16:49:09 34° WNW 16:52:41 10° N
USA 290 4.0 16:47:17 10° WSW 16:50:09 28° NW 16:53:00 10° N
Cosmos 2221 4.1 16:48:21 10° ESE 16:50:56 16° E 16:53:31 10° NE
ISS -2.2 16:48:20 10° SSW 16:51:17 27° SSE 16:54:14 10° E
CZ-2C R/B 4.3 16:49:49 10° ENE 16:51:51 12° E 16:53:52 10° ESE
Cosmos 1992 Rocket 4.0 16:48:10 10° SSW 16:53:20 69° ESE 16:58:34 10° NNE
Cosmos 1340 Rocket 4.3 16:50:54 10° NNE 16:53:35 17° ENE 16:56:16 10° ESE
USA 267 3.4 16:48:27 10° ENE 16:55:01 74° SSE 17:01:34 10° SW
Envisat 4.3 16:50:27 10° S 16:55:20 46° W 17:00:14 10° NNW
Cosmos 2322 Rocket 4.2 16:52:56 10° NNW 16:55:29 13° N 16:58:03 10° NNE
USA 81 4.1 16:50:25 10° S 16:55:38 67° E 17:00:53 10° N
Cosmos 1503 Rocket 4.4 16:50:50 10° NNW 16:56:13 76° WSW 17:01:35 10° SSE
USA 229 DEB 4.2 16:51:29 10° NW 16:58:14 46° NNE 17:05:28 10° E
USA 229 4.2 16:51:35 10° NW 16:58:19 46° NNE 17:05:33 10° E
RESURS DK-1 2.5 16:55:52 10° SW 17:00:00 79° NW 17:04:10 10° NNE
Lacrosse 5 rocket 1.1 16:56:20 10° WSW 17:00:04 85° NNW 17:03:54 11° ENE
YAOGAN 1 4.5 16:59:04 10° ENE 17:00:17 11° NE 17:01:30 10° NE
Cosmos 2333 Rocket 4.2 16:57:11 10° NW 17:00:24 15° NNW 17:03:37 10° NNE
Cosmos 1271 Rocket 3.7 16:58:38 10° SSE 17:02:01 29° E 17:05:28 10° NNE
NOSS 3-4 (A) 3.9 16:58:40 10° WSW 17:04:29 54° NNW 17:10:56 10° NE
NOSS 3-4 (C) 3.9 16:58:46 10° WSW 17:04:35 54° NNW 17:11:02 10° NE
Cosmos 1408 Rocket 4.2 17:02:20 10° N 17:06:13 31° ENE 17:10:06 10° SE
SMAP 3.1 17:02:59 10° SSE 17:07:32 57° ENE 17:12:08 10° N
ATLAS 2AS CENTAUR R/B 3.1 16:59:51 10° SW 17:07:45 85° NW 17:15:21 10° NE
SL-16 R/B 4.1 17:05:07 10° NNW 17:07:58 14° N 17:10:50 10° NE
Cosmos 1697 Rocket 3.7 17:04:17 10° NNW 17:09:01 27° NE 17:13:43 10° E
Cosmos 1980 Rocket 3.6 17:04:53 10° NNW 17:09:03 20° NNE 17:12:43 12° ENE
CZ-4B DEB 4.3 17:05:36 10° SE 17:10:58 54° ENE 17:16:20 10° N
Cosmos 2233 Rocket 4.0 17:05:38 10° S 17:11:47 89° E 17:18:03 10° N
Cosmos 2237 Rocket 4.0 17:09:52 10° WNW 17:14:06 21° NNW 17:18:21 10° NNE
NOAA 12 4.2 17:09:32 10° SSE 17:14:53 88° WSW 17:20:15 10° NNW
H-2A R/B 2.5 17:10:32 10° SE 17:15:23 40° ENE 17:20:09 10° N
Cosmos 44 3.6 17:10:41 10° NW 17:15:30 45° NE 17:20:00 10° ESE
USA 307 4.4 17:12:09 10° SSW 17:15:34 23° SE 17:18:33 12° E
Cosmos 1777 Rocket 4.0 17:11:59 10° NNW 17:17:18 83° ENE 17:22:36 10° SSE
PAYLOAD B 4.4 17:12:49 10° SE 17:18:13 50° ENE 17:23:37 10° N
Lacrosse 5 2.6 17:15:42 10° WNW 17:20:43 56° SW 17:25:42 10° SE
ATLAS CENTAUR R/B 2.2 17:17:06 10° S 17:20:51 35° ESE 17:23:56 15° ENE
NOSS 3-1 (A) 4.1 17:14:58 10° NW 17:21:43 55° NNE 17:29:49 10° ESE
Cosmos 1939 Rocket 2.9 17:20:47 10° SSE 17:24:56 82° ENE 17:29:04 10° NNW
Cosmos 1898 Rocket 4.3 17:21:25 10° NNW 17:26:03 30° NE 17:30:38 10° ESE
Cosmos 1603 3.9 17:20:32 10° SW 17:26:17 76° WNW 17:32:05 10° NNE
NOSS 3-1 (C) 4.0 17:19:50 10° NW 17:26:50 72° NE 17:35:15 10° ESE
SL-16 R/B 3.7 17:22:09 10° WSW 17:27:11 31° NW 17:32:14 10° NNE
SeaSat 1 4.2 17:23:16 10° NNE 17:27:11 24° NW 17:31:06 10° W
Okean 3 Rocket 3.6 17:22:50 10° N 17:27:24 82° ENE 17:31:55 10° SSE
Cosmos 1656 3.8 17:23:23 10° NNW 17:28:43 49° NE 17:34:06 10° SE
NOSS 2-1 (C) 3.9 17:27:50 10° S 17:30:42 29° SE 17:32:11 20° E
Cosmos 2084 4.1 17:27:19 10° NW 17:31:13 35° NNE 17:33:54 18° E
Cosmos 1862 3.3 17:28:40 10° NNW 17:32:40 84° W 17:36:39 10° S
CZ-2D R/B 3.3 17:32:43 10° SSE 17:36:28 54° ENE 17:40:15 10° N
GEOS 3 Rocket 3.6 17:31:45 10° SE 17:37:00 84° NE 17:42:14 10° NW
Cosmos 1461 3.0 17:33:02 10° SSW 17:37:10 56° SE 17:39:49 20° NE
USA 308 4.0 17:33:45 10° SSW 17:37:29 30° SE 17:39:45 19° E
Cosmos 2098 Rocket 4.4 17:32:04 10° NNW 17:37:56 71° W 17:44:55 10° S
PSLV R/B 3.5 17:34:43 10° SSE 17:38:22 67° ENE 17:42:04 10° N
MOS 1-B 4.3 17:33:04 10° SSE 17:38:45 66° ENE 17:44:30 10° NNW
Cosmos 1500 Rocket 4.0 17:35:35 10° N 17:39:49 39° ENE 17:43:59 10° SE
NOSS 2-1 (D) 3.6 17:36:55 10° SSW 17:39:54 34° SE 17:41:11 24° E
SJ 16-02 1.4 17:37:48 10° NNW 17:42:12 82° WSW 17:46:35 10° SSE
Cosmos-2242 4.0 17:42:59 10° SSW 17:47:09 47° WNW 17:51:20 10° N
CZ-2C R/B 4.2 17:43:05 10° S 17:47:55 45° W 17:52:36 10° NNW
Cosmos 1943 3.8 17:44:18 10° SW 17:49:49 55° NW 17:55:22 10° NNE
Cosmos 1805 Rocket 4.2 17:46:11 10° N 17:50:06 31° ENE 17:53:57 10° SE
CZ-4C R/B 3.3 17:45:43 10° NW 17:51:42 41° NNE 17:56:09 21° ENE
Cosmos 1842 Rocket 3.7 17:49:27 10° S 17:53:44 51° E 17:58:03 10° NNE
CZ-4B R/B 3.1 17:50:33 10° SSE 17:55:58 67° ENE 18:01:19 10° NNW
ATLAS 5 CENTAUR R/B 3.2 17:44:08 10° WNW 17:56:36 53° N 17:58:53 27° ENE
H-2A R/B 3.8 17:58:19 20° NNE 17:58:19 20° NNE 18:00:09 10° N
Cosmos 1833 Rocket 4.2 17:56:02 10° SE 17:58:47 17° ESE 17:58:47 17° ESE
CZ-4 R/B 2.5 18:00:41 26° NE 18:00:41 26° NE 18:03:34 10° N
Cosmos 2219 Rocket 4.3 17:57:47 10° NNW 18:00:19 13° N 18:02:42 10° NNE
Okean-O 4.5 18:04:15 16° NNE 18:04:15 16° NNE 18:05:34 10° N
Meteor 1-25 Rocket 4.2 18:00:15 10° N 18:05:45 58° ENE 18:11:14 10° SSE
Cosmos 2026 Rocket 4.1 18:00:26 10° N 18:06:30 50° ENE 18:12:26 10° SSE
Cosmos 2195 Rocket 4.4 18:01:47 10° N 18:07:51 59° ENE 18:13:55 10° SSE
Cosmos 1606 2.6 18:04:11 10° S 18:07:56 89° W 18:11:10 14° N
USA 305 3.3 18:04:10 10° SW 18:08:13 47° SSE 18:09:32 34° ESE
Sich 1 3.5 18:05:14 10° N 18:09:12 36° ENE 18:09:17 36° ENE
USA 276 2.8 18:06:44 10° WSW 18:09:46 45° S 18:10:26 38° SE
COSMO-SKYMED 1 2.8 18:11:30 32° NE 18:13:05 46° E 18:17:15 10° S
Okean O Rocket 1.5 18:10:16 10° SSE 18:14:41 72° ENE 18:19:09 10° NNW
ARGOS 3.0 18:10:31 10° SSE 18:15:55 73° ENE 18:21:20 10° NNW
ATLAS CENTAUR R/B 3.7 18:10:40 10° SSW 18:18:00 28° SE 18:19:17 25° ESE
Cosmos 1937 Rocket 3.7 18:13:48 10° NNW 18:18:58 48° NE 18:21:06 31° ESE
ERBS 3.9 18:17:56 10° SSW 18:19:49 22° SSE 18:19:49 22° SSE
Cosmos 1464 Rocket 4.3 18:20:09 10° SSW 18:26:30 73° WNW 18:32:56 10° N
Cosmos 2360 Rocket 3.9 18:23:35 10° NNW 18:27:02 16° NNE 18:27:21 16° NNE
ISS -3.6 18:24:25 10° WSW 18:27:47 62° S 18:27:49 62° S
Cosmos 2221 2.7 18:23:42 10° SSW 18:27:56 70° WNW 18:31:57 12° N
Cosmos 1763 Rocket 4.0 18:24:42 10° S 18:28:45 36° ESE 18:28:45 36° ESE
Cosmos 1340 Rocket 3.1 18:26:27 10° NNW 18:30:28 67° W 18:34:31 10° S
deb Kosmos-1763 3.9 18:29:18 10° SSW 18:32:26 73° S 18:32:26 73° S
NOSS 2-2 (C) 4.2 18:28:41 10° NW 18:33:10 53° NE 18:34:24 44° ENE
CZ-2C R/B 2.5 18:28:53 16° NNE 18:33:13 68° ESE 18:38:23 10° S
Cosmos 1933 4.3 18:30:58 10° S 18:33:24 33° SSE 18:33:24 33° SSE
deb Chang Zheng 4 4.0 18:31:07 10° S 18:35:22 61° WSW 18:39:41 10° NNW
YAOGAN 1 2.5 18:35:37 59° ENE 18:35:37 59° ENE 18:39:48 10° N
Meteor 2-21 4.3 18:29:24 10° N 18:35:33 70° ENE 18:41:37 10° SSE
Cosmos 2369 3.8 18:31:03 10° NNW 18:36:43 55° NE 18:38:07 44° E
SKYMED 3 4.4 18:35:51 43° NNE 18:37:14 76° ESE 18:41:35 10° S
Cosmos 1271 Rocket 4.5 18:34:23 10° SW 18:37:55 32° WNW 18:41:32 10° N
USA 267 3.3 18:35:05 34° ENE 18:38:04 69° N 18:44:34 10° W
Landsat 5 3.6 18:38:53 56° SE 18:38:53 56° SE 18:42:33 10° S
Lacrosse 5 rocket 1.7 18:35:44 10° WNW 18:39:27 48° N 18:39:29 48° N
Cosmos 990 Rocket 4.1 18:34:15 10° NNW 18:39:29 77° WSW 18:44:40 10° SSE
USA 306 2.9 18:35:39 10° WSW 18:39:51 64° SSE 18:40:01 63° SE
NOSS 2-1 (E) 3.1 18:36:40 10° SW 18:39:37 69° W 18:39:37 69° W
Feng Yun 1-1 Rocket 4.3 18:35:07 10° SSE 18:41:02 81° ENE 18:46:59 10° NNW
Cosmos 2322 Rocket 3.7 18:37:34 10° NNW 18:41:19 21° NNE 18:41:19 21° NNE
SL-19 R/B 4.3 18:40:54 14° NNE 18:45:59 85° ESE 18:52:15 10° SSW
Cosmos 1743 Rocket 4.1 18:41:55 10° NNW 18:46:11 57° W 18:50:25 10° S
SL-24 R/B - RUBIN 2 4.0 18:41:58 10° NW 18:46:11 47° NNE 18:46:11 47° NNE
Cosmos 858 Rocket 4.4 18:41:34 10° NNW 18:46:53 69° ENE 18:48:00 53° ESE
Cosmos 2333 Rocket 4.1 18:43:50 10° NNW 18:47:14 16° NNE 18:47:22 16° NNE
USA 229 DEB 3.9 18:42:37 10° NW 18:49:51 83° SW 18:54:57 24° SE
USA 229 3.9 18:42:43 10° NW 18:49:57 84° SW 18:54:58 24° SE
Cosmos 1092 Rocket 4.2 18:44:25 10° NNW 18:50:46 76° W 18:57:06 10° S
Cosmos 1697 Rocket 2.6 18:48:03 10° NNW 18:53:43 88° WSW 18:56:10 36° SSE
SL-16 R/B 3.5 18:49:21 10° NNW 18:53:08 25° NNE 18:53:08 25° NNE
Cosmos 1980 Rocket 2.2 18:48:40 10° NNW 18:54:19 58° NE 18:54:31 58° ENE
H-2A R/B 3.4 18:49:57 10° SSW 18:54:52 39° W 18:59:40 10° NNW
USA 307 3.1 18:50:43 10° WSW 18:54:34 64° SSW 18:54:34 64° SSW
Cosmos 372 Rocket 4.1 18:50:18 10° NNW 18:55:01 57° NE 18:55:01 57° NE
Cosmos 44 4.2 18:52:08 10° NW 18:56:46 44° WSW 18:59:25 22° S
ATLAS CENTAUR R/B 2.1 18:55:30 10° WSW 18:59:37 49° NW 19:00:03 47° NNW
ATLAS 2AS CENTAUR R/B 3.7 18:52:15 10° W 18:59:37 44° NNW 19:02:54 29° NNE
Cosmos 1602 4.3 18:56:15 10° NNW 18:59:32 53° WNW 18:59:32 53° WNW
Cosmos 2237 Rocket 4.3 18:57:58 10° NNW 19:00:31 13° N 19:01:42 12° N
SKYMED 2 3.8 19:00:06 46° N 19:01:13 66° WNW 19:05:31 10° SSW
Meteor 1-26 Rocket 4.2 18:55:41 10° S 19:01:31 67° E 19:02:35 56° NE
Cosmos 2278 4.0 18:58:22 10° NNW 19:03:23 50° NNE 19:03:23 50° NNE
Cosmos 1898 Rocket 3.9 19:03:19 10° NNW 19:08:33 62° WSW 19:11:39 24° S
Meteor 1-14 Rocket 4.1 19:02:55 10° NNW 19:08:40 77° ENE 19:09:24 67° SE
Cosmos 2084 3.9 19:06:44 10° NW 19:10:27 59° W 19:10:27 59° W
NOSS 3-1 (A) 4.3 19:05:51 10° NW 19:13:04 65° SW 19:19:12 20° SSE
SL-16 R/B 4.4 19:10:09 10° NW 19:13:14 15° NNW 19:15:09 13° N
Cosmos 1461 4.3 19:12:37 10° W 19:16:09 32° NW 19:16:09 32° NW
USA 308 3.8 19:12:47 10° WSW 19:15:47 45° WSW 19:15:47 45° WSW
Meteor 2-21 Rocket 4.4 19:12:20 10° NNW 19:18:31 80° W 19:24:36 10° S
Cosmos 468 Rocket 4.5 19:19:04 10° SSW 19:22:53 51° SSW 19:22:53 51° SSW
NOSS 2-2 (D) 4.2 19:21:54 10° NW 19:26:18 77° WNW 19:26:18 77° WNW
Cosmos 1655 Rocket 4.4 19:20:44 10° N 19:25:28 49° NNE 19:25:28 49° NNE
NOSS 2-2 (E) 4.3 19:23:53 10° NW 19:28:51 76° SW 19:29:00 75° SSW
Cosmos 2279 Rocket 4.4 19:23:47 10° S 19:38:22 - NNE 19:28:11 49° S
CZ-4 R/B 3.4 19:36:41 26° NW 19:36:41 26° NW 19:38:49 10° NNW
Cosmos 1634 Rocket 4.3 19:30:02 10° SSW 19:36:19 66° WNW 19:42:39 10° N
CZ-4C R/B 2.7 19:34:16 10° NW 19:41:09 81° NE 19:41:21 80° ENE
Cosmos 1833 Rocket 3.7 19:37:15 10° SSW 19:40:32 37° SSW 19:40:32 37° SSW
Cosmos 2219 Rocket 4.3 19:42:34 10° NNW 19:44:25 16° N 19:44:25 16° N
Okean O Rocket 4.4 19:48:35 10° SW 19:51:33 17° W 19:54:32 10° NW
Cosmos 2360 Rocket 4.2 20:07:24 10° NNW 20:09:07 19° NNW 20:09:07 19° NNW
USA 267 3.8 20:22:26 52° NW 20:22:26 52° NW 20:27:22 10° WNW
Cosmos 2322 Rocket 4.2 20:21:22 10° NNW 20:23:08 21° NNW 20:23:08 21° NNW
Cosmos 1980 Rocket 4.0 20:33:04 10° NW 20:36:18 27° WNW 20:36:18 27° WNW
SL-16 R/B 4.3 20:33:18 10° NNW 20:35:00 20° NNW 20:35:00 20° NNW
ATLAS 2AS CENTAUR R/B 4.1 20:45:13 10° WNW 20:50:20 34° NNW 20:50:20 34° NNW
CZ-4C R/B 4.5 21:23:01 10° NW 21:26:33 27° WNW 21:26:33 27° WNW
